sat.trackr.live / text

‹ back to catalog

SPARK 1

NORAD 41900 · 2016-081C

PAYLOAD ACTIVE UNKNOWN

§ Identity

Operator
Country
PRC
Launch date
2016-12-21
Launch site
JSC
Launch vehicle
Mass (kg)
RCS (m²)
0.25

External: N2YO · Heavens-Above · Gunter

§ Orbital elements

Epoch: 2026-09-03T10:03:59.203872Z

Period
98.64 min
Inclination
98.5551°
Eccentricity
0.0024943
Mean motion
14.59856096 rev/d
Perigee alt
676.0 km
Apogee alt
711.3 km
Semi-major
7,071.8 km
B*
6.3274e-5
RAAN
243.3264°
Arg perigee
79.3110°
Mean anomaly
281.0896°
Rev number
51,568

§ Raw data

SPARK 11 41900U 16081C   26246.41943523  .00000253  00000+0  63274-4 0  99962 41900  98.5551 243.3264 0024943  79.3110 281.0896 14.59856096515688

JSON: /api/v1/satellites/41900 · /tle

For live sub-satellite position, see the globe view (requires WebGL).

§ Visibility from observer

Set your observer location to see the next 7 days of passes ≥ 10°. The values pass through the URL so the page stays shareable.

No JS? Fill the form by hand. The geolocation button needs JavaScript.